Location: ???? ????????
(44.6297°N, 135.0963°E)
Time: 15:10:20
(UTC+00:00)

Daily predictions for brighter satellites

Satellite Brightness Start Highest point End
(mag) Time Altitude Azimuth Time Altitude Azimuth Time Altitude Azimuth
BREEZE-M DEB (TANK) 2.6 12:00:09 10° W 12:03:46 44° NNW 12:05:28 14° NE
Cosmos 2333 Rocket 3.0 12:01:30 10° NNW 12:06:50 39° NE 12:09:54 22° ESE
USA 186 1.8 12:06:19 36° SSW 12:07:07 54° W 12:09:49 10° NNW
USA 245 4.3 12:05:25 23° SSE 12:09:11 74° ENE 12:14:55 10° N
Cosmos 1461 2.9 12:13:46 40° ESE 12:13:46 40° ESE 12:17:14 10° NE
Cosmos 1626 Rocket 3.5 12:10:33 10° N 12:14:55 72° E 12:16:44 34° SSE
DELTA 2 R/B (1) 3.7 12:12:51 10° WSW 12:18:13 50° S 12:20:48 29° ESE
USA 305 2.9 12:15:22 10° WNW 12:19:15 45° SW 12:19:58 39° S
Cosmos 1437 Rocket 2.6 12:20:29 50° SE 12:20:56 55° E 12:24:27 10° NNE
CZ-4B R/B 2.3 12:21:00 53° SSE 12:21:42 82° ENE 12:25:07 10° N
Cosmos 2098 Rocket 3.9 12:23:04 33° ESE 12:24:10 38° E 12:28:21 10° NNE
Tsikada Rocket 4.3 12:19:57 10° NNW 12:26:01 61° W 12:30:41 17° SSW
Meteor 1-25 Rocket 4.4 12:20:42 10° N 12:26:16 56° ENE 12:28:34 34° SE
Cosmos 909 Rocket 4.3 12:22:20 10° SW 12:28:41 71° NW 12:35:08 10° NNE
Cosmos 2360 Rocket 3.2 12:24:41 10° N 12:29:52 35° NE 12:32:24 24° E
Cosmos 1606 Rocket 4.4 12:30:34 31° E 12:30:42 31° E 12:34:32 10° NNE
Okean O Rocket 2.8 12:28:04 17° SSW 12:30:50 35° W 12:34:47 10° NNW
CZ-4C R/B 4.4 12:29:56 10° W 12:33:34 23° NNW 12:37:58 10° NNE
Gbstr 26 Del rocket 4.3 12:37:11 10° WNW 12:41:12 27° SW 12:41:54 26° SSW
Cosmos 1933 3.1 12:42:04 53° SSW 12:42:54 81° W 12:46:43 10° N
Okean 1-7 Rocket 4.0 12:39:39 10° N 12:43:58 45° ENE 12:44:37 42° ESE
Cosmos 2219 Rocket 3.5 12:39:55 10° N 12:44:50 29° NE 12:47:17 21° E
Cosmos 220 Rocket 3.7 12:44:39 63° SE 12:45:01 67° ESE 12:49:05 10° NNE
SPOT 3 Rocket 3.9 12:43:02 30° S 12:45:26 60° W 12:50:32 10° NNW
Okean-O 4.5 12:45:59 14° SW 12:48:42 24° W 12:52:17 10° NW
Cosmos 1544 Rocket 4.3 12:49:58 24° SW 12:52:16 50° WNW 12:56:30 10° N
ISS -1.5 12:49:40 10° WNW 12:52:30 25° N 12:55:20 10° NE
Geosat 4.1 12:48:28 10° NE 12:53:21 52° ESE 12:54:00 48° SE
Cosmos 2151 3.3 12:51:06 10° NNW 12:55:08 55° W 12:56:02 44° SW
CZ-2C R/B 3.3 12:57:51 39° NW 12:57:51 39° NW 12:59:51 10° NNW
Ariane Rocket 3.3 12:55:51 37° SSW 12:57:42 59° W 13:02:42 10° NNW
Helios 1A 4.0 12:54:19 10° NNE 12:57:01 30° ENE 12:57:01 30° ENE
Cosmos 2322 Rocket 2.4 12:54:31 10° NNW 13:00:09 61° ENE 13:01:50 43° ESE
Cosmos 2082 Rocket 4.1 12:56:04 10° WSW 13:01:04 30° NW 13:06:04 10° N
BREEZE-M DEB (TANK) 3.9 12:57:37 10° WSW 12:59:45 27° WSW 12:59:45 27° WSW
BREEZE-M DEB (TANK) 4.1 12:47:54 10° W 13:01:11 78° NNW 13:06:12 10° ENE
Cosmos 1464 Rocket 3.9 13:05:29 39° S 13:07:56 87° E 13:14:08 10° N
USA 290 4.2 13:12:55 22° NE 13:12:55 22° NE 13:14:11 10° NNE
Cosmos 1536 4.5 13:14:18 10° NNE 13:16:33 21° NE 13:16:33 21° NE
Cosmos 1763 Rocket 3.5 13:18:26 58° SE 13:18:49 60° ESE 13:24:02 10° NNE
Meteor 1-5 Rocket 4.3 13:15:25 10° NNW 13:21:09 75° W 13:22:47 49° S
Cosmos 2278 3.8 13:17:46 10° NNW 13:23:26 67° WSW 13:24:40 52° SSW
Cosmos-2242 3.8 13:25:15 39° ENE 13:25:15 39° ENE 13:28:23 10° NNE
Cosmos 1825 Rocket 3.4 13:20:55 10° N 13:25:17 79° W 13:25:22 78° WSW
IKONOS-2 4.5 13:21:21 10° NNE 13:25:09 72° NE 13:25:09 72° NE
Cosmos 990 Rocket 4.2 13:23:13 10° NNW 13:28:19 58° ENE 13:29:01 53° E
SL-16 R/B 2.8 13:23:36 10° NW 13:29:00 47° WSW 13:30:14 40° SW
Cosmos 1953 Rocket 3.6 13:25:19 10° N 13:29:26 64° ENE 13:29:26 64° ENE
Cosmos 1092 Rocket 4.1 13:24:53 10° N 13:30:59 59° ENE 13:32:17 49° SE
Helios 1B rocket 3.2 13:33:05 38° NNE 13:33:05 38° NNE 13:35:35 10° N
Okean 1 3.8 13:33:06 49° NNW 13:33:06 49° NNW 13:35:59 10° N
Cosmos 1428 Rocket 4.5 13:27:38 10° NNW 13:33:52 75° W 13:35:34 50° SSW
Cosmos 2058 Rocket 3.6 13:35:41 46° ENE 13:35:41 46° ENE 13:39:14 10° NNE
Cosmos 1777 Rocket 4.0 13:30:39 10° NNW 13:35:51 67° WSW 13:36:26 61° SW
Meteor 2-10 4.5 13:30:15 10° NNW 13:35:54 62° W 13:37:13 48° SSW
Cosmos 1503 Rocket 3.8 13:35:46 10° NNW 13:40:58 79° WSW 13:41:23 73° SSW
ARIANE 5 R/B 3.5 13:44:39 39° ENE 13:44:39 39° ENE 13:48:43 10° N
Cosmos 2034 Rocket 4.1 13:42:38 46° SSW 13:44:38 76° W 13:51:02 10° N
ALOS 2 3.7 13:45:26 33° ENE 13:45:26 33° ENE 13:49:18 10° N
Cosmos 2221 4.3 13:49:16 21° ENE 13:49:16 21° ENE 13:51:28 10° NE
Cosmos 2333 Rocket 3.1 13:45:55 10° NW 13:51:03 35° WSW 13:51:54 34° SW
Cosmos 1354 Rocket 3.8 13:48:27 10° NNW 13:53:43 88° WSW 13:53:59 81° S
Cosmos 1833 4.3 13:55:26 52° SW 13:56:49 74° WNW 14:02:29 10° NNE
Meteor 2-6 Rocket 4.4 13:56:58 57° ESE 13:57:28 59° E 14:03:19 10° NNE
Cosmos 2297 Rocket 4.0 14:03:50 18° E 14:03:50 18° E 14:06:40 10° ENE
NOSS 3-4 (A) 4.1 14:00:24 10° NW 14:07:12 58° WSW 14:08:49 49° SSW
NOSS 3-4 (C) 4.1 14:01:02 10° NW 14:07:50 58° WSW 14:09:28 49° SSW
Cosmos 2279 Rocket 3.9 14:08:22 61° SE 14:09:10 68° E 14:15:23 10° NNE
Cosmos 2322 4.3 14:04:43 10° NNW 14:10:14 47° ENE 14:11:22 42° E
Cosmos 1634 Rocket 3.9 14:09:33 63° SSW 14:10:38 84° W 14:16:52 10° N
Cosmos 2360 Rocket 2.9 14:08:38 10° NW 14:13:53 40° WSW 14:14:08 39° WSW
Cosmos 372 Rocket 4.0 14:08:48 10° NNW 14:13:53 63° ENE 14:13:58 63° ENE
Aureole 1 Rocket 3.8 14:11:44 10° NNW 14:17:31 89° WSW 14:18:29 67° SSE
USA 234 3.1 14:12:26 10° NE 14:19:00 75° SE 14:20:30 55° SSW
CZ-2C R/B 3.9 14:17:12 10° NNE 14:22:38 42° E 14:22:39 42° E
Cosmos 44 3.4 14:20:19 10° NNW 14:25:44 81° NE 14:25:49 80° ENE
Cosmos 540 Rocket 4.4 14:25:05 35° W 14:26:21 41° WNW 14:31:13 10° N
Cosmos 1937 Rocket 4.1 14:22:28 10° N 14:27:25 45° ENE 14:27:50 44° ENE
Cosmos 2219 Rocket 2.6 14:23:33 10° NW 14:28:58 49° WSW 14:28:58 49° WSW
ISS -1.3 14:26:58 10° NW 14:28:45 23° NNW 14:28:45 23° NNW
Cosmos 468 Rocket 4.1 14:30:57 63° W 14:31:20 66° WNW 14:36:36 10° NNE
CZ-2C R/B 4.1 14:28:04 10° N 14:32:11 55° WNW 14:32:11 55° WNW
Cosmos 2266 Rocket 4.0 14:34:44 10° N 14:40:43 63° E 14:41:28 58° ESE
ACS3 Solar Sail 3.3 14:37:02 10° NE 14:41:28 21° E 14:42:11 21° E
Cosmos 2322 Rocket 3.8 14:39:31 10° NW 14:43:37 21° W 14:43:37 21° W
SL-08 ROCKET BODY 4.5 14:38:20 10° NNW 14:44:26 66° W 14:45:07 61° SW
ARGOS Delta rocket 4.1 14:40:39 10° N 14:45:45 69° WNW 14:45:55 68° W
Spot 4 4.4 14:47:40 47° WNW 14:47:40 47° WNW 14:51:45 10° NNW
Cosmos 1812 Rocket 4.1 14:51:02 57° NNE 14:51:02 57° NNE 14:54:36 10° N
Meteor 1-11 Rocket 3.6 14:48:43 10° N 14:54:24 78° E 14:54:41 75° ESE
Meteor 2-9 Rocket 4.1 14:50:36 10° NNW 14:55:55 67° W 14:55:55 67° W
Cosmos 1898 Rocket 3.5 14:51:50 10° NNW 14:56:39 71° WNW 14:56:39 71° WNW
Meteor 1-10 Rocket 4.1 14:56:56 78° S 14:57:21 87° E 15:03:19 10° N
RESURS DK-1 3.6 14:57:47 10° NNW 15:00:18 37° NNW 15:00:18 37° NNW
Cosmos 2237 Rocket 3.0 14:56:50 10° NNW 15:02:19 46° ENE 15:03:50 37° E
SeaSat 1 3.3 15:02:26 39° E 15:03:24 43° NE 15:08:02 10° NNW
Meteor 2-4 Rocket 4.1 15:04:49 47° E 15:04:52 47° E 15:10:06 10° NNE
Cosmos 1980 4.2 15:00:43 10° NNW 15:06:16 53° ENE 15:07:29 45° E
COSMOS 2428 2.6 15:02:04 10° NNW 15:07:43 73° WSW 15:07:43 73° WSW
CZ-2C R/B 2.5 15:11:22 83° ESE 15:11:28 84° ENE 15:16:44 10° NNW
Lacrosse 4 Rocket 3.3 15:13:19 22° ENE 15:13:19 22° ENE 15:15:08 10° NE
Cosmos 2227 Rocket 3.4 15:12:35 28° E 15:12:35 28° E 15:17:15 10° NE
Meteor 1-27 Rocket 3.6 15:14:08 75° SE 15:14:32 79° E 15:20:19 10° NNE
GP-B 3.7 15:12:04 10° N 15:15:35 51° NW 15:15:35 51° NW
Alouette 2 Rocket 4.3 15:15:20 10° N 15:18:33 47° NE 15:18:33 47° NE
ALOS 2 4.4 15:22:49 22° WNW 15:22:49 22° WNW 15:25:21 10° NW
Cosmos 2221 4.0 15:25:33 27° WNW 15:25:33 27° WNW 15:28:37 10° NNW
Cosmos 2263 Rocket 3.7 15:26:29 23° ESE 15:26:43 23° ESE 15:31:00 10° NE
Cosmos 841 Rocket 4.3 15:30:01 39° W 15:30:39 41° WNW 15:35:37 10° N
Sich 1 3.8 15:40:51 10° N 15:44:36 44° ENE 15:44:36 44° ENE
Cosmos 2297 Rocket 2.2 15:45:36 61° WSW 15:46:17 67° WNW 15:51:56 10° NNE
NOSS 0 Rocket 4.2 15:43:11 10° NW 15:49:01 48° WSW 15:49:01 48° WSW
Cosmos 1238 Rocket 3.9 15:53:27 38° NW 15:53:27 38° NW 15:56:30 10° N
Cosmos 158 Rocket 3.9 15:56:22 79° SSW 15:56:43 89° ESE 16:02:06 10° NNE
Cosmos 1766 Rocket 4.4 15:54:36 10° NNW 15:57:49 40° NW 15:57:49 40° NW
Landsat 5 4.4 15:55:50 10° N 15:59:09 40° NW 15:59:09 40° NW
USA 234 4.2 15:55:37 10° NE 16:01:46 45° NNW 16:07:49 10° W
CZ-2C R/B 4.4 15:57:10 10° N 16:02:13 33° WNW 16:03:38 29° W
Meteor 1-18 Rocket 4.0 16:05:50 68° S 16:06:36 86° E 16:12:16 10° NNE
Cosmos 1066 Rocket 4.0 16:07:07 66° WSW 16:07:39 71° WNW 16:13:08 10° N
Cosmos 1553 Rocket 4.0 16:12:42 53° S 16:14:20 85° E 16:20:47 10° N
BREEZE-M R/B 4.2 16:10:36 10° WNW 16:16:11 55° SW 16:23:54 10° SE
Cosmos 192 4.3 16:15:42 10° NNW 16:20:30 66° W 16:20:30 66° W
Meteor 2-10 Rocket 3.7 16:15:37 10° NNW 16:21:02 60° W 16:21:38 56° SW
Iridium 4 Rocket 4.0 16:20:36 49° WSW 16:21:19 52° W 16:26:58 10° N
ACS3 Solar Sail 1.8 16:18:20 10° N 16:24:15 64° WNW 16:25:41 49° SW
SL-08 R/B 4.4 16:25:20 10° N 16:31:39 76° W 16:33:31 48° SSW
Cosmos 2219 3.9 16:30:53 35° SE 16:32:25 43° ESE 16:37:43 10° NE
Cosmos 1758 3.8 16:29:06 10° NNW 16:31:48 46° NNW 16:31:48 46° NNW
SL-16 R/B 2.5 16:27:15 10° NNW 16:32:57 67° ENE 16:36:40 22° SE
SL-14 R/B 3.9 16:35:08 44° NW 16:35:08 44° NW 16:38:19 10° N
FENGYUN 3A 4.3 16:29:58 10° NNE 16:35:12 47° E 16:37:04 33° SSE
Cosmos 1386 Rocket 4.4 16:32:29 10° N 16:38:50 88° W 16:41:24 39° S
Cosmos 1151 Rocket 2.8 16:39:17 77° WSW 16:39:25 78° W 16:43:44 10° N
Cosmos 1500 Rocket 3.4 16:36:09 10° N 16:40:36 85° W 16:40:59 74° S
SeaSat 1 3.7 16:42:02 25° W 16:42:02 25° W 16:45:04 10° NW
Cosmos 1340 Rocket 2.7 16:37:35 10° N 16:41:21 80° NE 16:41:21 80° NE
Okean 3 Rocket 4.1 16:39:25 10° NNW 16:43:32 44° W 16:43:32 44° W
Cosmos 1125 Rocket 3.5 16:38:48 10° NNW 16:44:08 80° ENE 16:46:30 34° SSE
Cosmos 2237 Rocket 3.3 16:41:20 10° NW 16:45:36 28° W 16:45:36 28° W
Cosmos 1745 Rocket 3.9 16:41:10 10° N 16:47:20 82° E 16:50:21 32° SSE
CZ-2D R/B 4.2 16:44:51 10° NE 16:48:53 21° E 16:52:56 10° SE
Lacrosse 4 Rocket 2.8 16:48:42 25° WNW 16:49:19 26° NW 16:52:47 10° N
NPP 3.9 16:44:04 10° NNE 16:49:26 64° ESE 16:51:25 38° SSE
MSX 3.8 16:46:57 10° NNE 16:52:46 87° ESE 16:54:54 41° SSW
ATLAS 5 CENTAUR R/B 3.7 16:50:34 37° SW 16:53:27 82° NW 17:15:06 10° NE
Cosmos 2227 Rocket 2.8 16:54:21 34° WSW 16:56:15 46° WNW 17:01:43 10° NNE
IDEFIX/ARIANE 42P 2.5 16:53:31 10° NNE 16:58:45 83° WNW 17:00:26 45° SSW
Cosmos 773 Rocket 4.3 16:58:15 36° SSE 17:00:03 56° ESE 17:05:04 10° NNE
CENTAUR R/B 3.5 16:59:54 21° SSE 17:02:23 30° ESE 17:07:50 10° NE
Cosmos 1703 2.8 17:03:55 74° NNE 17:03:55 74° NNE 17:06:53 10° N
BlueWalker 3 2.9 17:04:54 31° WNW 17:05:47 37° NNW 17:09:07 10° NE
NOSS 2-2 (C) 3.5 17:07:21 43° ESE 17:07:21 43° ESE 17:10:11 10° NE
Cosmos 2208 Rocket 4.5 17:05:10 31° SSE 17:07:29 55° ESE 17:12:38 10° NNE
Cosmos 1805 Rocket 4.1 17:04:28 10° NNW 17:08:30 39° W 17:08:33 39° W
Cosmos 1417 Rocket 4.4 17:06:35 37° SSW 17:09:03 69° W 17:15:12 10° N
Cosmos 1666 Rocket 4.0 17:04:55 10° N 17:09:19 58° E 17:11:55 23° SSE
Cosmos 2263 Rocket 2.5 17:08:08 36° WSW 17:10:10 55° WNW 17:15:41 10° NNE
H-2A R/B 3.9 17:05:51 10° NE 17:10:22 26° E 17:14:52 10° SSE
Cosmos 1743 Rocket 3.5 17:08:44 10° NNW 17:13:00 59° W 17:13:45 50° SW
Cosmos 1953 2.1 17:12:31 10° N 17:16:10 73° E 17:17:14 43° SSE
ALOS 3.7 17:14:21 10° NNE 17:18:26 32° E 17:21:40 14° SSE
Cosmos 1943 3.7 17:14:36 10° NNW 17:20:11 61° ENE 17:25:42 10° SE
BREEZE-M DEB (TANK) 3.3 17:11:14 10° W 17:20:40 58° NNW 17:24:02 10° ENE
MOZ.5/SAFIR/RUBIN 5/SL-8 3.9 17:18:39 19° SSE 17:21:58 74° ENE 17:26:33 10° N
Tiangong -1.4 17:27:24 39° SE 17:27:24 39° SE 17:29:49 10° ESE
H-2A R/B 4.0 17:24:36 10° SE 17:27:42 29° ENE 17:30:51 10° N
Cosmos 2297 Rocket 4.4 17:28:31 10° WNW 17:31:26 14° NW 17:34:21 10° N
NOSS 2-2 (D) 3.9 17:34:09 29° SSE 17:35:09 36° ESE 17:38:03 10° NE
Envisat 3.2 17:31:22 10° NNE 17:36:26 68° ESE 17:39:52 21° S
CRYOSAT 2 4.3 17:34:15 27° S 17:36:52 69° W 17:41:45 10° N
Meteor 1-21 4.4 17:33:01 20° S 17:36:59 73° E 17:42:35 10° NNE
Cosmos 2082 3.7 17:34:31 30° SW 17:37:24 71° WNW 17:43:03 10° NNE
S3M 4.3 17:35:20 27° SW 17:38:23 49° WNW 17:44:21 10° N
Cosmos 1328 Rocket 3.6 17:39:09 33° SSW 17:41:00 65° W 17:45:24 10° N
Cosmos 1844 Rocket 3.1 17:38:22 20° S 17:42:09 57° ESE 17:47:37 10° NNE
Cosmos 1867 4.5 17:37:27 10° NNW 17:42:49 52° NE 17:48:07 10° SE
COSMOS 2441 4.4 17:38:18 10° N 17:43:03 68° WNW 17:45:36 27° SSW
Cosmos 2315 Rocket 4.2 17:40:07 25° SSW 17:43:46 57° WNW 17:50:01 10° N
EXPRESS MD2 4.4 17:43:05 13° NW 17:44:40 24° N 17:47:00 10° ENE
USA 281 3.2 17:40:57 10° SSE 17:47:31 86° WSW 17:54:08 10° NNW
Meteor 1-13 Rocket 4.4 17:44:56 26° SW 17:48:05 57° WNW 17:53:43 10° N
ADEOS Rocket 3.8 17:42:42 10° N 17:50:11 55° WNW 17:55:11 20° SW
ADEOS II 2.8 17:45:23 10° NNE 17:50:29 51° E 17:55:32 10° S
USA 81 4.0 17:46:18 10° N 17:51:32 66° W 17:55:32 17° S
Atlas Centaur 2 4.0 17:51:11 20° SSW 17:54:29 26° S 18:00:57 10° ESE
Resurs 1-4 Rocket 2.1 17:49:46 10° NNE 17:55:05 84° ESE 17:59:16 16° SSW
SL-16 R/B 4.3 17:52:15 10° SE 17:57:48 35° ENE 18:03:21 10° N
ATLAS 2AS CENTAUR R/B 2.6 17:56:02 10° NW 18:02:51 87° SW 18:09:41 10° SSE
BREEZE-M DEB (TANK) 3.8 18:00:01 10° WNW 18:03:20 54° SSW 18:14:18 10° SE
Okean 2 3.1 18:02:10 20° SSW 18:04:43 82° W 18:08:34 10° N
CZ-4C R/B 3.9 17:58:07 10° NNW 18:04:46 51° NE 18:13:02 10° ESE
ACS3 Solar Sail 3.8 18:03:40 10° NW 18:05:26 11° NW 18:07:12 10° WNW
USA 307 2.6 18:06:04 27° W 18:07:02 35° SW 18:10:20 10° SSE
Cosmos 1844 3.7 18:09:10 16° SSW 18:13:48 89° WNW 18:19:36 10° NNE
Cosmos 2298 Rocket 4.1 18:09:06 10° NNW 18:14:18 56° WSW 18:19:29 10° S
Cosmos 2344 4.4 18:07:36 10° S 18:15:17 44° ESE 18:22:00 10° NE
Cosmos 1470 Rocket 3.8 18:11:33 10° NNW 18:15:46 50° W 18:19:49 11° SSW
SL-16 R/B 3.6 18:12:32 10° NW 18:16:26 19° W 18:18:26 16° SW
Cosmos 1633 Rocket 3.9 18:12:43 10° NNW 18:16:33 32° W 18:19:10 17° SW
Cosmos 2219 4.3 18:12:46 15° WSW 18:16:40 32° NW 18:21:41 10° N
Cosmos 2084 4.2 18:14:36 10° WNW 18:18:07 27° WSW 18:21:35 10° S
Cosmos 1295 Rocket 4.5 18:15:35 10° NNW 18:21:46 67° W 18:27:51 10° S
Cosmos 1933 Rocket 3.6 18:18:58 10° N 18:23:21 85° E 18:27:40 10° S
JB-3 4.0 18:20:26 10° S 18:24:04 79° W 18:27:46 10° NNW
CZ-2D R/B 2.4 18:23:54 10° N 18:29:11 57° WNW 18:34:21 11° SSW
NOSS 2-2 (E) 2.8 18:30:49 15° SW 18:33:36 72° NW 18:36:38 10° NNE
Cosmos 1900 4.3 18:31:24 10° NW 18:36:12 61° WSW 18:40:59 10° SSE
NOSS 7 (H) 4.5 18:36:19 10° NW 18:39:09 42° SW 18:42:20 10° SSE
Meteor 1-12 Rocket 4.4 18:33:59 10° NNW 18:39:30 52° W 18:44:56 10° S
BlueWalker 3 4.1 18:41:11 10° NW 18:43:54 20° N 18:46:37 10° NE
Okean 3 3.5 18:41:25 10° SSW 18:45:20 53° WNW 18:49:16 10° N
ARGOS 3.3 18:40:16 10° NNE 18:45:39 80° ESE 18:51:00 10° SSW
Cosmos 2154 Rocket 4.2 18:43:03 10° NNW 18:49:07 54° W 18:55:07 10° SSW
H-2A R/B 2.6 18:44:41 10° N 18:49:47 45° WNW 18:54:55 10° SW
Cosmos 1328 4.4 18:47:15 10° S 18:50:39 51° E 18:54:05 10° NNE
CENTAUR R/B 2.9 18:47:02 10° WSW 18:52:26 52° NW 18:59:18 10° NNE
Cosmos 1869 Rocket 3.6 18:50:05 10° NNW 18:54:24 62° W 18:58:38 10° S
Cosmos 2074 Rocket 4.4 18:48:36 10° NNW 18:54:29 44° W 19:00:19 10° SSW
ALOS 3.3 18:51:23 10° N 18:55:15 28° WNW 18:59:07 10° SW
Cosmos 2263 Rocket 4.4 18:53:24 10° WNW 18:55:23 12° NW 18:57:23 10° NNW
Cosmos 1400 Rocket 2.6 18:52:35 10° NNW 18:56:23 79° W 19:00:09 10° S
Cosmos 1441 Rocket 3.3 18:53:39 10° S 18:56:58 65° E 19:00:17 10° NNE
H-2A R/B 2.3 18:54:10 10° NNE 18:58:07 63° ESE 19:02:04 10° S
Cosmos 2184 Rocket 4.4 18:52:33 10° NNW 18:58:17 42° W 19:04:00 10° SSW
CZ-2C R/B 3.5 18:55:05 10° NNE 18:59:26 42° E 19:03:44 10° S
H-2A R/B 3.6 18:59:10 10° SW 19:01:41 18° W 19:04:15 10° NW
Tiangong -1.1 19:00:25 10° W 19:03:14 29° SSW 19:06:03 10° SE
Cosmos 1943 4.4 18:59:36 10° NW 19:03:40 21° W 19:07:43 10° SSW
